Location: Miss�
(46.9484°N, 0.1922°W)
Time: 08:53:09
(UTC+00:00)

Cosmos 1862 Rocket - Pass Details

Date: 02 March 2021
Orbit: 603 x 634 km, 82.5° (Epoch: 12 April)

Event Time Altitude Azimuth Distance (km) Brightness Sun altitude
Rises 18:41:58 0° 351° (N) 2,943 7.2 -10.0°
Reaches altitude 10° 18:44:14 10° 353° (N) 2,031 6.3 -10.4°
Maximum altitude 18:48:45 77° 80° (E) 656 3.5 -11.2°
Drops below altitude 10° 18:53:13 10° 167° (SSE) 2,009 6.0 -11.9°
Sets 18:55:26 0° 169° (S) 2,909 6.9 -12.3°
